GW3496 Weather Reports


Display with metric or nautical units.
time (UTC)temp
F
wind
direction
speed
MPH
gust
MPH
rain 1hr
in
rain 24hr
in
rain mn
in
humidity
%
barometer
mb
20260903123050 75 328 2.0 11.0 0.00 0.00 0.00 94 1016.2
20260903121548 75 28 2.0 7.0 0.00 0.00 0.00 94 1015.7
20260903120045 75 261 0.0 0.0 0.00 0.00 0.00 94 1015.3
20260903114553 74 261 0.0 0.0 0.00 0.00 0.00 94 1015.1
20260903113051 74 261 0.0 0.0 0.00 0.00 0.00 94 1014.9
20260903111559 74 261 0.0 4.0 0.00 0.00 0.00 94 1014.7
20260903110110 74 178 0.0 0.0 0.00 0.00 0.00 94 1014.4
20260903104541 74 209 0.0 2.0 0.00 0.00 0.00 94 1014.3
20260903103051 74 165 2.0 4.0 0.00 0.00 0.00 93 1014.2
20260903101552 74 182 2.0 5.0 0.00 0.00 0.00 93 1014.1
20260903100059 74 187 3.0 5.0 0.00 0.00 0.00 93 1014.0
20260903094555 74 113 0.0 0.0 0.00 0.00 0.00 93 1014.3
20260903093049 74 90 0.0 2.0 0.00 0.00 0.00 93 1014.5
20260903091554 74 130 0.0 0.0 0.00 0.00 0.00 93 1014.4
20260903090053 74 320 0.0 0.0 0.00 0.00 0.00 93 1014.4
20260903084552 74 44 0.0 2.0 0.00 0.00 0.00 92 1014.3
20260903083048 74 145 2.0 4.0 0.00 0.00 0.00 92 1014.1
20260903081557 74 113 1.0 5.0 0.00 0.00 0.00 92 1014.2
20260903080054 74 157 0.0 0.0 0.00 0.00 0.00 92 1013.8
20260903074605 74 117 0.0 2.0 0.00 0.00 0.00 92 1014.3
20260903073050 74 209 2.0 5.0 0.00 0.00 0.00 91 1013.8
20260903071557 74 125 2.0 6.0 0.00 0.00 0.00 91 1013.8
20260903070056 75 155 2.0 6.0 0.00 0.00 0.00 90 1013.8
20260903064603 75 170 3.0 4.0 0.00 0.00 0.00 90 1014.0
20260903063050 75 133 0.0 0.0 0.00 0.00 0.00 90 1014.2
20260903061552 75 120 0.0 4.0 0.00 0.00 0.00 89 1014.4
20260903054618 76 119 0.0 0.0 0.00 0.00 0.00 88 1015.0
20260903053118 76 103 0.0 4.0 0.00 0.00 0.00 88 1015.0
20260903051603 75 129 0.0 3.0 0.00 0.00 0.00 89 1014.9
20260903050129 75 130 0.0 0.0 0.00 0.00 0.00 90 1015.0
20260903044607 74 182 0.0 0.0 0.00 0.00 0.00 91 1015.3
20260903043103 74 20 0.0 0.0 0.00 0.00 0.00 91 1015.4
20260903040039 74 20 0.0 4.0 0.00 0.00 0.00 90 1015.1
20260903034545 75 43 3.0 5.0 0.00 0.00 0.00 90 1014.9
20260903033043 76 29 0.0 0.0 0.00 0.00 0.00 90 1014.8
20260903031542 76 32 0.0 0.0 0.00 0.00 0.00 89 1014.7
20260903030045 76 355 0.0 0.0 0.00 0.00 0.00 87 1014.7
20260903024547 77 275 0.0 5.0 0.00 0.00 0.00 87 1014.6
20260903023043 77 273 0.0 3.0 0.00 0.00 0.00 86 1014.7
20260903021553 77 273 0.0 0.0 0.00 0.00 0.00 85 1014.7
20260903020037 77 267 2.0 6.0 0.00 0.00 0.00 85 1014.9
20260903014544 77 286 2.0 8.0 0.00 0.00 0.00 84 1015.1
20260903013043 78 254 1.0 4.0 0.00 0.00 0.00 83 1015.2
20260903011545 78 255 0.0 3.0 0.00 0.00 0.00 82 1015.1
20260903010047 78 286 0.0 3.0 0.00 0.00 0.00 80 1015.5
20260903004557 78 347 0.0 0.0 0.00 0.00 0.00 79 1015.4
20260903003044 79 329 0.0 3.0 0.00 0.00 0.00 78 1015.2
20260903001541 79 23 0.0 4.0 0.00 0.00 0.00 77 1015.0
20260903000040 80 331 0.0 5.0 0.00 0.00 0.00 77 1015.1
20260902234541 80 11 0.0 0.0 0.00 0.00 0.00 75 1014.9
20260902233044 81 61 0.0 0.0 0.00 0.00 0.00 74 1015.2
20260902231548 81 115 0.0 6.0 0.00 0.00 0.00 75 1015.5
20260902230039 81 117 1.0 5.0 0.00 0.00 0.00 74 1015.8
20260902224546 81 179 0.0 0.0 0.00 0.00 0.00 75 1015.6
20260902223043 81 134 0.0 4.0 0.00 0.00 0.00 75 1015.8
20260902221540 81 138 4.0 7.0 0.00 0.00 0.00 74 1016.1
20260902220052 81 138 2.0 9.0 0.00 0.00 0.00 73 1015.0
20260902214550 81 118 4.0 7.0 0.00 0.00 0.00 73 1015.3
20260902213040 81 127 3.0 9.0 0.00 0.00 0.00 73 1015.2
20260902211550 81 84 3.0 7.0 0.00 0.00 0.00 74 1015.5
20260902210050 81 118 6.0 10.0 0.00 0.00 0.00 74 1015.5
20260902204550 82 103 6.0 16.0 0.00 0.00 0.00 72 1016.2
20260902203041 84 103 6.0 12.0 0.00 0.00 0.00 69 1015.9
20260902201603 84 144 9.0 16.0 0.00 0.00 0.00 69 1016.1
20260902200046 84 136 6.0 11.0 0.00 0.00 0.00 69 1016.2
20260902194543 85 108 6.0 19.0 0.00 0.00 0.00 68 1016.8
20260902193049 88 79 22.0 34.0 0.00 0.00 0.00 63 1016.6
20260902191549 93 93 10.0 16.0 0.00 0.00 0.00 62 1015.7
20260902190042 92 71 5.0 17.0 0.00 0.00 0.00 62 1015.5
20260902184543 93 90 5.0 15.0 0.00 0.00 0.00 61 1016.1
20260902183050 93 125 7.0 12.0 0.00 0.00 0.00 60 1016.2
20260902181554 93 94 4.0 10.0 0.00 0.00 0.00 60 1016.1
20260902180055 93 5 4.0 6.0 0.00 0.00 0.00 60 1016.3
20260902174549 93 88 4.0 8.0 0.00 0.00 0.00 60 1016.6
20260902173040 93 92 5.0 10.0 0.00 0.00 0.00 60 1016.5
20260902171540 92 65 2.0 9.0 0.00 0.00 0.00 61 1016.6
20260902170050 91 319 2.0 10.0 0.00 0.00 0.00 62 1016.5
20260902164552 91 144 1.0 8.0 0.00 0.00 0.00 62 1016.8
20260902163047 91 113 4.0 7.0 0.00 0.00 0.00 62 1016.7
20260902161600 91 111 3.0 8.0 0.00 0.00 0.00 62 1016.7
20260902160049 90 165 0.0 4.0 0.00 0.00 0.00 62 1016.7
20260902154557 90 133 3.0 8.0 0.00 0.00 0.00 63 1016.5
20260902153050 89 59 1.0 4.0 0.00 0.00 0.00 65 1016.7
20260902151545 88 72 1.0 6.0 0.00 0.00 0.00 67 1016.8
20260902150041 87 349 3.0 8.0 0.00 0.00 0.00 67 1017.0
20260902144550 87 66 4.0 8.0 0.00 0.00 0.00 67 1016.9
20260902143056 86 35 3.0 9.0 0.00 0.00 0.00 73 1017.1
20260902141541 86 355 1.0 5.0 0.00 0.00 0.00 73 1016.7
20260902140042 84 5 1.0 5.0 0.00 0.00 0.00 76 1016.7
20260902134553 83 340 0.0 4.0 0.00 0.00 0.00 77 1016.4
20260902133059 82 32 3.0 4.0 0.00 0.00 0.00 78 1016.3
20260902131545 82 274 0.0 0.0 0.00 0.00 0.00 80 1016.1
20260902130054 81 24 1.0 5.0 0.00 0.00 0.00 81 1015.9
20260902124556 80 25 0.0 5.0 0.00 0.00 0.00 82 1015.9